Regional Weather Roundup
Issued by NWS Little Rock, AR

Home | Current Version | Previous Version | Graphics & Text | Print | Product List | Glossary On
Versions: 1 2 3 4 5 6 7 8 9 10 11 12 13 14 15 16 17 18 19 20 21 22 23 24 25 26 27 28 29 30 31 32 33 34 35 36 37 38 39 40 41 42 43 44 45 46 47 48 49 50
000
ASUS44 KLZK 290605
RWRLZK

WEATHER ROUNDUP FOR ARKANSAS
NATIONAL WEATHER SERVICE LITTLE ROCK AR
100 AM CDT SUN MAR 29 2015

NOTE: "FAIR" INDICATES FEW OR NO CLOUDS BELOW 12,000 FEET WITH NO
SIGNIFICANT WEATHER AND/OR OBSTRUCTIONS TO VISIBILITY.

ARZ001-003-010-029-290700-
NORTHWEST ARKANSAS

CITY           SKY/WX    TMP DP  RH WIND       PRES   REMARKS
FAYETTEVILLE   CLEAR     43  36  76 SE5       30.14S
6HR MIN TEMP:  43; 6HR MAX TEMP:  55;

FORT SMITH     CLEAR     42  33  70 E15       30.19R
6HR MIN TEMP:  42; 6HR MAX TEMP:  53;

HARRISON       CLEAR     35  31  85 SE15      30.19F WCI  25
6HR MIN TEMP:  35; 6HR MAX TEMP:  43;

BENTONVILLE    CLEAR     43  32  65 SE10      30.13F
6HR MIN TEMP:  43; 6HR MAX TEMP:  57;

ROGERS         CLEAR     42  33  70 SE12      30.14F
6HR MIN TEMP:  42; 6HR MAX TEMP:  55;

SILOAM SPGS    CLEAR     45  30  57 SE9       30.13F
6HR MIN TEMP:  45; 6HR MAX TEMP:  57;

HIGHFILL       CLEAR     43  34  70 SE9       30.12F
6HR MIN TEMP:  43; 6HR MAX TEMP:  58;

$$

ARZ004-005-016-290700-
NORTH CENTRAL ARKANSAS

CITY           SKY/WX    TMP DP  RH WIND       PRES   REMARKS
BATESVILLE     CLEAR     34  28  80 CALM      30.29S
6HR MIN TEMP:  34; 6HR MAX TEMP:  37;

FLIPPIN        CLEAR     34  27  75 SE3       30.24F
6HR MIN TEMP:  34; 6HR MAX TEMP:  39;

MTN HOME       CLEAR     33  30  88 SE6       30.24S WCI  28
6HR MIN TEMP:  33; 6HR MAX TEMP:  37;

$$

ARZ040-041-290700-
WEST CENTRAL ARKANSAS

CITY           SKY/WX    TMP DP  RH WIND       PRES   REMARKS
MENA           CLEAR     45  36  70 E6        30.19S
MOUNT IDA      CLEAR     42  32  67 VRB3      30.19F
6HR MIN TEMP:  42; 6HR MAX TEMP:  53;

$$

ARZ009-017-025-026-028-290700-
NORTHEAST ARKANSAS

CITY           SKY/WX    TMP DP  RH WIND       PRES   REMARKS
CORNING          N/A     34  32  93 SE5       30.32S WCI  30
JONESBORO      CLEAR     32  30  92 NE6       30.31S WCI  26
6HR MIN TEMP:  30; 6HR MAX TEMP:  40;

NEWPORT        CLEAR     37  34  89 E7        30.31F
6HR MIN TEMP:  37; 6HR MAX TEMP:  40;

BLYTHEVILLE    CLEAR     32  30  92 E3        30.33S
6HR MIN TEMP:  32; 6HR MAX TEMP:  43;

$$

ARZ022-023-033-042-044-290700-
CENTRAL ARKANSAS

CITY           SKY/WX    TMP DP  RH WIND       PRES   REMARKS
LITTLE ROCK    CLEAR     40  33  76 E5        30.28S
6HR MIN TEMP:  40; 6HR MAX TEMP:  47;

N LITTLE ROCK    N/A     38  36  94 E6        30.28S
6HR MIN TEMP:  38; 6HR MAX TEMP:  45;

JACKSONVILLE   CLEAR     36  33  90 NE3       30.27S
6HR MIN TEMP:  35; 6HR MAX TEMP:  46;

SEARCY         CLEAR     34  32  92 NE6       30.31S WCI  29
6HR MIN TEMP:  34; 6HR MAX TEMP:  40;

HOT SPRINGS    CLEAR     41  32  70 E7        30.25R
6HR MIN TEMP:  41; 6HR MAX TEMP:  53;

RUSSELLVILLE   CLEAR     38  33  82 E5        30.26S
6HR MIN TEMP:  38; 6HR MAX TEMP:  50;

CLINTON        FAIR      32  32 100 CALM      30.30S FOG
$$

ARZ036-290700-
EAST ARKANSAS

CITY           SKY/WX    TMP DP  RH WIND       PRES   REMARKS
WEST MEMPHIS   CLEAR     35  30  82 E3        30.30F
6HR MIN TEMP:  35; 6HR MAX TEMP:  42;

$$

ARZ050-053-066-070-073-290700-
SOUTHWEST ARKANSAS

CITY           SKY/WX    TMP DP  RH WIND       PRES   REMARKS
ARKADELPHIA    FAIR      42  36  79 NE5       30.26R
6HR MIN TEMP:  42; 6HR MAX TEMP:  55;

CAMDEN         CLEAR     41  32  70 CALM      30.24S
TEXARKANA      CLEAR     47  37  68 E7        30.18S
6HR MIN TEMP:  47; 6HR MAX TEMP:  67;

EL DORADO      CLEAR     44  34  67 E8        30.22S
6HR MIN TEMP:  44; 6HR MAX TEMP:  58;

DE QUEEN       CLEAR     46  36  68 E9        30.17S
6HR MIN TEMP:  46; 6HR MAX TEMP:  64;

$$

ARZ056-057-069-290700-
SOUTHEAST ARKANSAS

CITY           SKY/WX    TMP DP  RH WIND       PRES   REMARKS
PINE BLUFF     CLEAR     40  35  83 E7        30.27S
6HR MIN TEMP:  40; 6HR MAX TEMP:  48;

STUTTGART      CLEAR     39  32  75 E7        30.28S
6HR MIN TEMP:  39; 6HR MAX TEMP:  45;

MONTICELLO     CLEAR     41  33  73 E7        30.26S
6HR MIN TEMP:  41; 6HR MAX TEMP:  50; 6HR PCP: TRACE;


$$





USA.gov is the U.S. government's official web portal to all federal, state and local government web resources and services.